Time,TemperatureF,DewpointF,PressureIn,WindDirection,WindDirectionDegrees,WindSpeedMPH,WindSpeedGustMPH,Humidity,HourlyPrecipIn,Conditions,Clouds,dailyrainin,SoftwareType,DateUTC
2013-07-04 00:02:00,66.0,65.0,30.15,North,5,0.0,0.0,97,0.00,,,1.26,,2013-07-04 04:02:00,
2013-07-04 00:11:00,66.0,65.0,30.15,North,5,0.0,0.0,97,0.00,,,1.26,,2013-07-04 04:11:00,
2013-07-04 00:22:00,66.0,65.0,30.14,North,5,0.0,0.0,97,0.01,,,1.27,,2013-07-04 04:22:00,
2013-07-04 00:33:00,66.0,65.0,30.14,North,5,0.0,0.0,97,0.01,,,1.27,,2013-07-04 04:33:00,
2013-07-04 00:43:00,66.0,65.0,30.15,North,5,0.0,1.0,97,0.03,,,1.29,,2013-07-04 04:43:00,
2013-07-04 00:52:00,66.0,65.0,30.13,North,5,0.0,0.0,97,0.08,,,1.34,,2013-07-04 04:52:00,
2013-07-04 01:02:00,66.0,65.0,30.13,North,5,0.0,0.0,97,0.08,,,1.34,,2013-07-04 05:02:00,
2013-07-04 01:12:00,66.0,65.0,30.13,North,5,0.0,1.0,97,0.11,,,1.37,,2013-07-04 05:12:00,
2013-07-04 01:22:00,66.0,65.0,30.14,North,5,0.0,2.0,97,0.11,,,1.38,,2013-07-04 05:22:00,
2013-07-04 01:33:00,66.0,65.0,30.14,North,5,0.0,2.0,97,0.11,,,1.38,,2013-07-04 05:33:00,
2013-07-04 01:43:00,66.0,65.0,30.14,North,5,0.0,1.0,97,0.09,,,1.38,,2013-07-04 05:43:00,
2013-07-04 01:52:00,66.0,65.0,30.13,North,5,0.0,0.0,98,0.03,,,1.38,,2013-07-04 05:52:00,
2013-07-04 02:01:00,66.0,65.0,30.12,North,5,0.0,2.0,98,0.01,,,1.38,,2013-07-04 06:01:00,
2013-07-04 02:11:00,66.0,65.0,30.12,North,5,0.0,2.0,98,0.01,,,1.38,,2013-07-04 06:11:00,
2013-07-04 02:22:00,66.0,65.0,30.12,North,5,0.0,0.0,98,0.00,,,1.38,,2013-07-04 06:22:00,
2013-07-04 02:34:00,66.0,65.0,30.13,North,5,0.0,1.0,98,0.09,,,1.47,,2013-07-04 06:34:00,
2013-07-04 02:43:00,66.0,65.0,30.13,North,5,0.0,1.0,98,0.09,,,1.47,,2013-07-04 06:43:00,
2013-07-04 02:53:00,66.0,65.0,30.11,North,5,0.0,0.0,98,0.18,,,1.56,,2013-07-04 06:53:00,
2013-07-04 03:02:00,66.0,65.0,30.13,North,5,0.0,2.0,98,0.34,,,1.72,,2013-07-04 07:02:00,
2013-07-04 03:12:00,66.0,65.0,30.13,North,5,0.0,2.0,98,0.34,,,1.72,,2013-07-04 07:12:00,
2013-07-04 03:22:00,66.0,65.0,30.13,North,5,0.0,1.0,98,0.49,,,1.88,,2013-07-04 07:22:00,
2013-07-04 03:34:00,65.0,64.0,30.12,North,5,0.0,1.0,98,0.43,,,1.91,,2013-07-04 07:34:00,
2013-07-04 03:43:00,65.0,64.0,30.12,North,5,0.0,1.0,98,0.43,,,1.91,,2013-07-04 07:43:00,
2013-07-04 03:52:00,65.0,64.0,30.11,North,5,0.0,1.0,98,0.37,,,1.94,,2013-07-04 07:52:00,
2013-07-04 04:02:00,65.0,64.0,30.11,North,5,0.0,0.0,98,0.21,,,1.94,,2013-07-04 08:02:00,
2013-07-04 04:11:00,65.0,64.0,30.11,North,5,0.0,0.0,98,0.21,,,1.94,,2013-07-04 08:11:00,
2013-07-04 04:22:00,65.0,64.0,30.11,North,5,0.0,0.0,98,0.06,,,1.94,,2013-07-04 08:22:00,
2013-07-04 04:33:00,65.0,64.0,30.11,North,5,0.0,0.0,98,0.03,,,1.94,,2013-07-04 08:33:00,
2013-07-04 04:42:00,65.0,64.0,30.11,North,5,0.0,0.0,98,0.03,,,1.94,,2013-07-04 08:42:00,
2013-07-04 04:53:00,66.0,65.0,30.11,North,5,0.0,0.0,98,0.00,,,1.94,,2013-07-04 08:53:00,
2013-07-04 05:02:00,65.0,64.0,30.10,North,5,0.0,0.0,98,0.00,,,1.94,,2013-07-04 09:02:00,
2013-07-04 05:11:00,65.0,64.0,30.10,North,5,0.0,0.0,98,0.00,,,1.94,,2013-07-04 09:11:00,
2013-07-04 05:22:00,65.0,64.0,30.10,North,5,0.0,0.0,98,0.00,,,1.85,,2013-07-04 09:22:00,
2013-07-04 05:42:00,65.0,64.0,30.11,North,5,0.0,1.0,98,0.00,,,1.85,,2013-07-04 09:42:00,
2013-07-04 05:52:00,66.0,65.0,30.11,North,5,0.0,0.0,98,0.00,,,1.85,,2013-07-04 09:52:00,
2013-07-04 06:11:00,66.0,65.0,30.11,North,5,0.0,1.0,98,0.00,,,1.85,,2013-07-04 10:11:00,
2013-07-04 06:22:00,66.0,65.0,30.11,North,5,0.0,0.0,98,0.00,,,1.80,,2013-07-04 10:22:00,
2013-07-04 06:34:00,66.0,65.0,30.11,North,5,0.0,0.0,98,0.00,,,1.80,,2013-07-04 10:34:00,
2013-07-04 06:43:00,66.0,65.0,30.12,North,5,0.0,0.0,98,0.00,,,1.80,,2013-07-04 10:43:00,
2013-07-04 06:53:00,66.0,65.0,30.12,North,5,0.0,0.0,98,0.00,,,1.80,,2013-07-04 10:53:00,
2013-07-04 07:02:00,66.0,65.0,30.12,North,5,0.0,0.0,98,0.00,,,1.80,,2013-07-04 11:02:00,
2013-07-04 07:11:00,66.0,65.0,30.14,North,5,0.0,5.0,98,0.00,,,1.80,,2013-07-04 11:11:00,
2013-07-04 07:22:00,66.0,65.0,30.14,North,5,0.0,5.0,98,0.00,,,1.80,,2013-07-04 11:22:00,
2013-07-04 07:34:00,66.0,65.0,30.14,North,5,0.0,1.0,98,0.20,,,2.00,,2013-07-04 11:34:00,
2013-07-04 07:43:00,66.0,65.0,30.14,North,5,0.0,1.0,98,0.20,,,2.00,,2013-07-04 11:43:00,
2013-07-04 07:53:00,66.0,65.0,30.15,North,5,0.0,0.0,98,0.20,,,2.00,,2013-07-04 11:53:00,
2013-07-04 08:02:00,66.0,65.0,30.15,North,5,0.0,0.0,98,0.20,,,2.00,,2013-07-04 12:02:00,
2013-07-04 08:12:00,66.0,65.0,30.15,North,5,0.0,1.0,98,0.24,,,2.04,,2013-07-04 12:12:00,
2013-07-04 08:22:00,66.0,65.0,30.16,North,5,0.0,2.0,98,0.12,,,2.12,,2013-07-04 12:22:00,
2013-07-04 08:43:00,66.0,65.0,30.15,North,5,0.0,1.0,98,0.13,,,2.13,,2013-07-04 12:43:00,
2013-07-04 08:52:00,66.0,65.0,30.15,North,9,0.0,1.0,98,0.17,,,2.17,,2013-07-04 12:52:00,
2013-07-04 09:12:00,67.0,66.0,30.16,North,5,0.0,1.0,98,0.13,,,2.17,,2013-07-04 13:12:00,
2013-07-04 09:23:00,67.0,67.0,30.15,North,5,0.0,2.0,99,0.05,,,2.17,,2013-07-04 13:23:00,
2013-07-04 09:33:00,67.0,67.0,30.16,North,5,0.0,1.0,99,0.04,,,2.17,,2013-07-04 13:33:00,
2013-07-04 09:43:00,67.0,67.0,30.16,North,5,0.0,1.0,99,0.04,,,2.17,,2013-07-04 13:43:00,
2013-07-04 09:53:00,68.0,68.0,30.15,North,5,0.0,1.0,99,0.03,,,2.20,,2013-07-04 13:53:00,
2013-07-04 10:02:00,68.0,68.0,30.15,North,5,0.0,2.0,99,0.03,,,2.20,,2013-07-04 14:02:00,
2013-07-04 10:11:00,68.0,68.0,30.15,North,5,0.0,2.0,99,0.03,,,2.20,,2013-07-04 14:11:00,
2013-07-04 10:22:00,68.0,68.0,30.15,North,5,1.0,5.0,99,0.03,,,2.20,,2013-07-04 14:22:00,
2013-07-04 10:33:00,69.0,69.0,30.15,North,5,0.0,3.0,99,0.05,,,2.22,,2013-07-04 14:33:00,
2013-07-04 10:43:00,69.0,69.0,30.15,North,5,0.0,3.0,99,0.05,,,2.22,,2013-07-04 14:43:00,
2013-07-04 10:53:00,69.0,69.0,30.15,North,5,0.0,3.0,99,0.02,,,2.22,,2013-07-04 14:53:00,
2013-07-04 11:02:00,69.0,68.0,30.15,North,5,1.0,4.0,98,0.02,,,2.22,,2013-07-04 15:02:00,
2013-07-04 11:11:00,69.0,68.0,30.15,North,5,1.0,4.0,98,0.02,,,2.22,,2013-07-04 15:11:00,
2013-07-04 11:23:00,70.0,70.0,30.15,North,5,0.0,3.0,99,0.02,,,2.22,,2013-07-04 15:23:00,
2013-07-04 11:33:00,70.0,69.0,30.15,North,5,0.0,2.0,98,0.00,,,2.22,,2013-07-04 15:33:00,
2013-07-04 11:43:00,70.0,69.0,30.15,North,5,0.0,2.0,98,0.00,,,2.22,,2013-07-04 15:43:00,
2013-07-04 11:53:00,71.0,70.0,30.15,North,5,0.0,4.0,98,0.00,,,2.22,,2013-07-04 15:53:00,
2013-07-04 12:02:00,71.0,70.0,30.15,North,5,0.0,3.0,98,0.00,,,2.22,,2013-07-04 16:02:00,
2013-07-04 12:11:00,71.0,70.0,30.15,North,5,0.0,3.0,98,0.00,,,2.22,,2013-07-04 16:11:00,
2013-07-04 12:22:00,71.0,70.0,30.14,North,5,0.0,3.0,98,0.00,,,2.21,,2013-07-04 16:22:00,
2013-07-04 12:33:00,72.0,71.0,30.14,North,5,0.0,2.0,98,0.00,,,2.21,,2013-07-04 16:33:00,
2013-07-04 12:43:00,72.0,71.0,30.14,North,5,0.0,2.0,98,0.00,,,2.21,,2013-07-04 16:43:00,
2013-07-04 12:52:00,73.0,72.0,30.14,North,5,0.0,4.0,97,0.00,,,2.21,,2013-07-04 16:52:00,
2013-07-04 13:01:00,73.0,72.0,30.14,North,5,0.0,4.0,97,0.00,,,2.21,,2013-07-04 17:01:00,
2013-07-04 13:12:00,74.0,73.0,30.12,North,5,0.0,4.0,97,0.00,,,2.21,,2013-07-04 17:12:00,
2013-07-04 13:22:00,75.0,74.0,30.12,North,5,1.0,4.0,96,0.00,,,2.21,,2013-07-04 17:22:00,
2013-07-04 13:34:00,75.0,74.0,30.12,North,5,1.0,4.0,96,0.00,,,2.21,,2013-07-04 17:34:00,
2013-07-04 13:43:00,75.0,74.0,30.12,North,5,1.0,4.0,96,0.00,,,2.21,,2013-07-04 17:43:00,
2013-07-04 13:53:00,76.0,74.0,30.10,North,5,0.0,2.0,94,0.06,,,2.27,,2013-07-04 17:53:00,
2013-07-04 14:01:00,76.0,74.0,30.10,North,5,0.0,2.0,94,0.06,,,2.27,,2013-07-04 18:01:00,
2013-07-04 14:11:00,76.0,74.0,30.10,North,5,0.0,4.0,95,0.06,,,2.27,,2013-07-04 18:11:00,
2013-07-04 14:22:00,75.0,73.0,30.11,North,9,0.0,5.0,95,0.09,,,2.29,,2013-07-04 18:22:00,
2013-07-04 14:33:00,75.0,73.0,30.11,North,9,0.0,5.0,95,0.09,,,2.29,,2013-07-04 18:33:00,
2013-07-04 14:43:00,75.0,73.0,30.10,North,10,0.0,3.0,95,0.06,,,2.29,,2013-07-04 18:43:00,
2013-07-04 14:52:00,75.0,74.0,30.09,North,10,0.0,2.0,96,0.03,,,2.29,,2013-07-04 18:52:00,
2013-07-04 15:02:00,75.0,74.0,30.09,North,10,0.0,2.0,96,0.03,,,2.29,,2013-07-04 19:02:00,
2013-07-04 15:12:00,75.0,74.0,30.09,North,9,0.0,0.0,96,0.03,,,2.29,,2013-07-04 19:12:00,
2013-07-04 15:22:00,76.0,75.0,30.09,North,9,2.0,5.0,97,0.00,,,2.29,,2013-07-04 19:22:00,
2013-07-04 15:33:00,76.0,75.0,30.09,North,9,2.0,5.0,97,0.00,,,2.29,,2013-07-04 19:33:00,
2013-07-04 15:43:00,76.0,75.0,30.08,North,9,3.0,7.0,96,0.00,,,2.29,,2013-07-04 19:43:00,
2013-07-04 15:53:00,75.0,73.0,30.08,North,5,0.0,4.0,93,0.00,,,2.29,,2013-07-04 19:53:00,
2013-07-04 16:02:00,75.0,73.0,30.08,North,5,0.0,4.0,93,0.00,,,2.29,,2013-07-04 20:02:00,
2013-07-04 16:11:00,75.0,73.0,30.09,North,9,2.0,5.0,93,0.17,,,2.47,,2013-07-04 20:11:00,
2013-07-04 16:22:00,75.0,73.0,30.09,North,9,0.0,3.0,95,0.17,,,2.47,,2013-07-04 20:22:00,
2013-07-04 16:34:00,75.0,73.0,30.09,North,9,0.0,3.0,95,0.17,,,2.47,,2013-07-04 20:34:00,
2013-07-04 16:42:00,74.0,72.0,30.09,North,9,1.0,4.0,95,0.20,,,2.50,,2013-07-04 20:42:00,
2013-07-04 16:53:00,73.0,71.0,30.07,North,5,0.0,6.0,94,0.23,,,2.52,,2013-07-04 20:53:00,
2013-07-04 17:01:00,73.0,71.0,30.07,North,5,0.0,6.0,94,0.23,,,2.52,,2013-07-04 21:01:00,
2013-07-04 17:11:00,73.0,71.0,30.07,North,9,3.0,8.0,94,0.15,,,2.62,,2013-07-04 21:11:00,
2013-07-04 17:22:00,73.0,71.0,30.09,North,9,1.0,3.0,95,0.16,,,2.63,,2013-07-04 21:22:00,
2013-07-04 17:32:00,73.0,71.0,30.09,North,9,1.0,3.0,95,0.16,,,2.63,,2013-07-04 21:32:00,
2013-07-04 17:43:00,73.0,72.0,30.09,North,9,0.0,1.0,96,0.12,,,2.63,,2013-07-04 21:43:00,
2013-07-04 17:53:00,73.0,72.0,30.08,North,9,0.0,0.0,97,0.10,,,2.63,,2013-07-04 21:53:00,
2013-07-04 18:02:00,73.0,72.0,30.08,North,9,0.0,0.0,97,0.10,,,2.63,,2013-07-04 22:02:00,
2013-07-04 18:12:00,73.0,72.0,30.11,North,9,2.0,4.0,97,0.01,,,2.63,,2013-07-04 22:12:00,
2013-07-04 18:22:00,72.0,70.0,30.10,North,9,2.0,5.0,95,0.32,,,2.47,,2013-07-04 22:22:00,
2013-07-04 18:33:00,72.0,70.0,30.10,North,9,2.0,5.0,95,0.32,,,2.47,,2013-07-04 22:33:00,
2013-07-04 18:43:00,71.0,69.0,30.11,North,9,0.0,4.0,95,0.34,,,2.49,,2013-07-04 22:43:00,
2013-07-04 18:52:00,71.0,69.0,30.10,North,9,0.0,3.0,95,0.34,,,2.49,,2013-07-04 22:52:00,
2013-07-04 19:01:00,71.0,69.0,30.10,North,9,0.0,3.0,95,0.34,,,2.49,,2013-07-04 23:01:00,
2013-07-04 19:12:00,71.0,69.0,30.10,North,9,1.0,5.0,95,0.36,,,2.52,,2013-07-04 23:12:00,
2013-07-04 19:23:00,70.0,68.0,30.12,North,5,0.0,2.0,95,0.21,,,2.37,,2013-07-04 23:23:00,
2013-07-04 19:33:00,70.0,68.0,30.12,North,5,0.0,2.0,95,0.21,,,2.37,,2013-07-04 23:33:00,
2013-07-04 19:43:00,69.0,68.0,30.11,North,5,0.0,0.0,96,0.19,,,2.37,,2013-07-04 23:43:00,
2013-07-04 19:52:00,69.0,68.0,30.12,North,5,0.0,2.0,96,0.23,,,2.41,,2013-07-04 23:52:00,
2013-07-04 20:01:00,69.0,68.0,30.12,North,5,0.0,2.0,96,0.23,,,2.41,,2013-07-05 00:01:00,
2013-07-04 20:12:00,69.0,68.0,30.11,North,9,0.0,3.0,97,0.20,,,2.41,,2013-07-05 00:12:00,
2013-07-04 20:22:00,69.0,68.0,30.11,North,9,1.0,4.0,97,0.08,,,2.14,,2013-07-05 00:22:00,
2013-07-04 20:32:00,69.0,68.0,30.11,North,9,1.0,4.0,97,0.08,,,2.14,,2013-07-05 00:32:00,
2013-07-04 20:43:00,69.0,68.0,30.11,North,9,0.0,1.0,97,0.16,,,2.22,,2013-07-05 00:43:00,
2013-07-04 20:52:00,69.0,68.0,30.11,North,9,0.0,1.0,97,0.16,,,2.22,,2013-07-05 00:52:00,
2013-07-04 21:01:00,69.0,68.0,30.11,North,9,0.0,2.0,97,0.16,,,2.25,,2013-07-05 01:01:00,
2013-07-04 21:11:00,69.0,68.0,30.11,North,9,0.0,2.0,97,0.16,,,2.25,,2013-07-05 01:11:00,
2013-07-04 21:22:00,69.0,68.0,30.11,North,9,0.0,2.0,97,0.16,,,2.25,,2013-07-05 01:22:00,
2013-07-04 21:32:00,69.0,68.0,30.12,North,5,1.0,3.0,97,0.26,,,2.36,,2013-07-05 01:32:00,
2013-07-04 21:42:00,69.0,68.0,30.12,North,5,1.0,3.0,97,0.26,,,2.36,,2013-07-05 01:42:00,
2013-07-04 21:52:00,69.0,68.0,30.12,North,5,1.0,3.0,97,0.26,,,2.36,,2013-07-05 01:52:00,
2013-07-04 22:02:00,68.0,67.0,30.13,North,9,0.0,0.0,98,0.17,,,2.42,,2013-07-05 02:02:00,
2013-07-04 22:11:00,68.0,67.0,30.13,North,9,0.0,0.0,98,0.17,,,2.42,,2013-07-05 02:11:00,
2013-07-04 22:22:00,68.0,67.0,30.13,North,5,0.0,0.0,98,0.06,,,2.42,,2013-07-05 02:22:00,
2013-07-04 22:32:00,68.0,67.0,30.13,North,5,0.0,0.0,98,0.06,,,2.42,,2013-07-05 02:32:00,
2013-07-04 22:42:00,68.0,67.0,30.13,North,5,0.0,0.0,98,0.06,,,2.42,,2013-07-05 02:42:00,
2013-07-04 22:53:00,68.0,67.0,30.14,North,9,0.0,0.0,98,0.00,,,2.42,,2013-07-05 02:53:00,
2013-07-04 23:02:00,68.0,67.0,30.14,North,9,0.0,0.0,98,0.00,,,2.42,,2013-07-05 03:02:00,
2013-07-04 23:11:00,68.0,67.0,30.14,North,9,0.0,0.0,98,0.00,,,2.42,,2013-07-05 03:11:00,
2013-07-04 23:22:00,68.0,67.0,30.14,North,9,0.0,0.0,98,0.00,,,2.42,,2013-07-05 03:22:00,
2013-07-04 23:32:00,68.0,67.0,30.14,North,9,0.0,0.0,98,0.00,,,2.42,,2013-07-05 03:32:00,
2013-07-04 23:42:00,68.0,67.0,30.14,North,9,0.0,0.0,98,0.00,,,2.42,,2013-07-05 03:42:00,
2013-07-04 23:52:00,68.0,67.0,30.14,North,9,0.0,0.0,98,0.00,,,2.42,,2013-07-05 03:52:00,